Location: Central Coast
(33.3208°S, 151.2336°E)
Time: 21:03:12
(UTC+11:00)

Tiangong 1 - Pass Details

Date: 09 October 2017
Orbit: 292 x 320 km, 42.8° (Epoch: 22 October)

Event Time Altitude Azimuth Distance (km) Brightness Sun altitude
Exits shadow 04:38:25 19° 65° (ENE) 811 3.1 -21.7°
Drops below altitude 10° 04:39:47 10° 92° (E) 1,188 4.5 -21.4°
Sets 04:42:00 0° 108° (ESE) 2,027 6.3 -21.0°
